1488207600.68,21471,11.94,73100.5,-2.17,-14.69,-12.75,0,*5E
1488207601.91,21472,11.94,73100.5,-2.19,-14.61,-12.79,0,*57
1488207603.18,21473,11.94,73098.0,-2.19,-14.51,-12.79,0,*55
1488207604.46,21474,11.94,73098.3,-2.17,-14.43,-12.57,0,*53
1488207605.71,21475,11.94,73100.0,-2.17,-14.33,-12.61,0,*50
1488207606.94,21476,11.94,73098.0,-2.17,-14.29,-12.47,0,*5C
1488207608.17,21477,11.94,73100.0,-2.17,-14.29,-12.47,0,*5D
1488207609.41,21478,11.94,73096.0,-2.17,-14.23,-12.47,0,*58
1488207610.65,21479,11.94,73096.5,-2.17,-14.15,-12.29,0,*54
1488207611.9,21480,11.94,73088.8,-2.17,-14.15,-12.29,0,*52
1488207613.13,21481,11.94,73094.0,-2.17,-14.11,-12.25,0,*5B
1488207614.39,21482,11.94,73092.3,-2.17,-14.11,-12.15,0,*5B
1488207615.63,21483,11.94,73090.0,-2.15,-14.11,-12.15,0,*58
1488207616.92,21484,11.94,73090.0,-2.13,-13.97,-12.07,0,*53
1488207618.18,21485,11.94,73092.3,-2.13,-13.97,-12.21,0,*56
1488207619.4,21486,11.94,73090.8,-2.15,-14.11,-12.25,0,*5E
1488207620.64,21487,11.94,73088.3,-2.15,-14.01,-12.25,0,*5E
1488207621.88,21488,11.94,73088.5,-2.15,-14.11,-12.15,0,*53
1488207623.09,21489,11.94,73090.8,-2.15,-14.11,-12.25,0,*51
1488207624.36,21490,11.94,73090.3,-2.15,-13.97,-12.11,0,*57
1488207625.61,21491,11.94,73088.5,-2.15,-13.97,-12.03,0,*55
1488207626.89,21492,11.94,73094.0,-2.13,-13.83,-11.97,0,*5B
1488207628.13,21493,11.94,73090.3,-2.15,-13.87,-12.03,0,*56
1488207629.42,21494,11.94,73090.0,-2.13,-13.83,-11.93,0,*59
1488207630.68,21495,11.94,73088.3,-2.13,-13.93,-11.97,0,*5D
1488207631.93,21496,11.94,73088.8,-2.13,-13.93,-12.07,0,*54
1488207633.22,21497,11.94,73088.8,-2.13,-13.83,-11.97,0,*5E
1488207634.5,21498,11.94,73094.5,-2.13,-13.79,-11.93,0,*50
1488207635.76,21499,11.94,73090.8,-2.13,-13.69,-11.97,0,*54
1488207636.99,21500,11.94,73092.5,-2.13,-13.69,-12.03,0,*5B
1488207638.25,21501,11.94,73092.5,-2.13,-13.69,-11.93,0,*50
1488207639.53,21502,11.94,73092.8,-2.13,-13.79,-11.97,0,*56
1488207640.79,21503,11.94,73094.8,-2.13,-13.69,-11.97,0,*56
1488207642.04,21504,11.94,73088.5,-2.13,-13.65,-11.85,0,*5E
1488207643.29,21505,11.94,73094.3,-2.09,-13.61,-11.81,0,*54
1488207644.55,21506,11.94,73096.5,-2.09,-13.61,-11.89,0,*5F
1488207645.81,21507,11.94,73094.8,-2.09,-13.61,-11.89,0,*5E
1488207647.09,21508,11.94,73094.5,-2.11,-13.61,-11.81,0,*50
1488207648.35,21509,11.94,73092.0,-2.11,-13.51,-11.77,0,*5B
1488207649.59,21510,11.94,73094.3,-2.09,-13.51,-11.67,0,*5B
1488207650.88,21511,11.94,73092.3,-2.11,-13.37,-11.67,0,*53
1488207652.11,21512,11.94,73094.3,-2.09,-13.47,-11.67,0,*5E
1488207653.36,21513,11.94,73090.8,-2.09,-13.33,-11.67,0,*5C
1488207654.59,21514,11.94,73088.8,-2.09,-13.47,-11.77,0,*59
1488207655.84,21515,11.94,73090.8,-2.09,-13.37,-11.67,0,*5E
1488207657.1,21516,11.94,73094.3,-2.09,-13.37,-11.67,0,*5D
1488207658.39,21517,11.94,73094.3,-2.07,-13.33,-11.63,0,*52
1488207659.68,21518,11.94,73088.8,-2.07,-13.33,-11.73,0,*5C
1488207660.94,21519,11.94,73092.5,-2.07,-13.43,-11.73,0,*5A
1488207662.2,21520,11.94,73094.0,-2.07,-13.43,-11.63,0,*51
1488207663.49,21521,11.94,73088.5,-2.07,-13.33,-11.73,0,*56
1488207664.77,21522,11.94,73086.3,-2.07,-13.33,-11.73,0,*55
1488207666.05,21523,11.94,73088.3,-2.07,-13.33,-11.73,0,*54
1488207667.3,21524,11.94,73090.8,-2.05,-13.19,-11.63,0,*58
1488207668.56,21525,11.94,73090.0,-2.05,-13.29,-11.63,0,*5A
1488207669.83,21526,11.94,73086.0,-2.05,-13.29,-11.63,0,*59
1488207671.09,21527,11.94,73088.0,-2.05,-13.29,-11.63,0,*58
1488207672.36,21528,11.94,73086.8,-2.07,-13.19,-11.63,0,*56
1488207673.62,21529,11.94,73086.5,-2.05,-13.29,-11.73,0,*57
1488207674.88,21530,11.94,73086.0,-2.05,-13.33,-11.63,0,*55
1488207676.15,21531,11.94,73086.0,-2.05,-13.29,-11.63,0,*5F
1488207677.39,21532,11.94,73088.8,-2.05,-13.19,-11.59,0,*56
1488207678.62,21533,11.94,73094.0,-2.05,-13.19,-11.59,0,*57
1488207679.83,21534,11.94,73088.5,-2.05,-13.15,-11.45,0,*51
1488207681.04,21535,11.94,73088.8,-2.05,-13.11,-11.45,0,*54
1488207682.24,21536,11.94,73088.8,-2.01,-13.07,-11.41,0,*50
1488207683.45,21537,11.94,73088.0,-2.01,-13.11,-11.41,0,*56
1488207684.65,21538,11.94,73090.3,-2.01,-13.07,-11.45,0,*5A
1488207685.86,21539,11.94,73090.8,-2.01,-13.07,-11.45,0,*5B
1488207687.06,21540,11.94,73092.8,-2.01,-13.07,-11.41,0,*51
1488207688.32,21541,11.94,73088.5,-1.99,-12.97,-11.29,0,*54
1488207689.53,21542,11.94,73084.8,-2.01,-13.07,-11.41,0,*53
1488207690.76,21543,11.94,73082.5,-2.01,-13.11,-11.55,0,*50
1488207691.99,21544,11.94,73082.8,-2.01,-13.23,-11.55,0,*56
1488207693.23,21545,11.94,73090.5,-2.01,-13.23,-11.59,0,*5B
1488207694.45,21546,11.94,73090.8,-2.01,-13.15,-11.59,0,*5D
1488207695.69,21547,11.94,73088.3,-2.01,-13.23,-11.67,0,*54
1488207696.92,21548,11.94,73086.5,-2.01,-13.23,-11.67,0,*5B
1488207698.17,21549,11.94,73082.3,-2.01,-13.37,-11.81,0,*57
1488207699.41,21550,11.94,73078.5,-2.01,-13.51,-11.93,0,*5C
1488207700.66,21551,11.94,73078.5,-2.01,-13.37,-11.81,0,*5E
1488207701.89,21552,11.94,73076.5,-2.01,-13.15,-11.59,0,*58
1488207703.12,21553,11.94,73086.5,-2.01,-13.11,-11.55,0,*51
1488207704.32,21554,11.94,73088.0,-2.01,-13.11,-11.45,0,*57
1488207705.55,21555,11.94,73084.3,-2.01,-13.11,-11.55,0,*57
1488207706.78,21556,11.94,73084.8,-2.01,-12.93,-11.33,0,*5F
1488207708.01,21557,11.94,73082.5,-2.01,-12.93,-11.33,0,*5E
1488207709.26,21558,11.94,73090.5,-1.99,-12.83,-11.23,0,*53
1488207710.53,21559,11.94,73090.8,-1.99,-12.83,-11.33,0,*53
1488207711.82,21560,11.94,73088.0,-1.99,-12.79,-11.29,0,*57
1488207713.07,21561,11.94,73088.0,-1.99,-12.93,-11.33,0,*59
1488207714.33,21562,11.94,73084.8,-1.99,-12.71,-11.23,0,*57
1488207715.61,21563,11.94,73086.8,-1.99,-12.79,-11.29,0,*54
1488207716.87,21564,11.94,73086.3,-1.99,-12.79,-11.23,0,*59
1488207718.12,21565,11.94,73086.0,-1.99,-12.83,-11.23,0,*5D
1488207719.37,21566,11.94,73094.0,-1.99,-12.65,-11.15,0,*53
1488207720.65,21567,11.94,73092.5,-1.99,-12.83,-11.29,0,*55
1488207721.89,21568,11.94,73088.3,-1.99,-13.07,-11.45,0,*5D
1488207723.14,21569,11.94,73082.3,-1.99,-13.11,-11.67,0,*5B
1488207724.4,21570,11.94,73086.8,-1.97,-12.75,-11.29,0,*54
1488207725.66,21571,11.94,73088.0,-1.97,-12.79,-11.29,0,*59
1488207726.89,21572,11.94,73090.0,-1.97,-13.01,-11.41,0,*5A
1488207728.14,21573,11.94,73094.5,-1.97,-13.01,-11.51,0,*5A
1488207729.37,21574,11.94,73096.8,-1.99,-12.93,-11.45,0,*5C
1488207730.61,21575,11.94,73098.8,-1.99,-12.93,-11.45,0,*5D
1488207731.89,21576,11.88,73096.3,-1.99,-12.71,-11.29,0,*58
1488207733.17,21577,11.94,73096.8,-1.99,-12.71,-11.29,0,*59
1488207734.43,21578,11.94,73098.0,-1.99,-12.93,-11.33,0,*51
1488207735.66,21579,11.94,73102.5,-1.99,-12.97,-11.45,0,*55
1488207736.95,21580,11.94,73098.0,-1.99,-12.79,-11.29,0,*59
1488207738.2,21581,11.94,73098.0,-1.99,-12.65,-11.23,0,*5F
1488207739.45,21582,11.94,73104.8,-1.97,-12.65,-11.37,0,*57
1488207740.7,21583,11.94,73106.5,-1.97,-12.79,-11.29,0,*54
1488207741.95,21584,11.94,73102.0,-1.97,-12.79,-11.37,0,*5C
1488207743.2,21585,11.94,73100.5,-1.97,-12.79,-11.37,0,*5D
1488207744.46,21586,11.94,73098.5,-1.99,-12.79,-11.23,0,*55
1488207745.72,21587,11.94,73092.5,-1.99,-12.57,-11.15,0,*5D
1488207746.92,21588,11.94,73094.3,-1.97,-12.47,-11.23,0,*58
1488207748.15,21589,11.94,73094.8,-1.97,-12.53,-11.19,0,*55
1488207749.37,21590,11.94,73090.3,-1.97,-12.65,-11.19,0,*58
1488207750.6,21591,11.94,73090.5,-1.97,-12.65,-11.23,0,*50
1488207751.82,21592,11.94,73098.3,-1.97,-12.65,-11.19,0,*5A
1488207753.05,21593,11.94,73106.0,-1.97,-12.53,-11.11,0,*56
1488207754.28,21594,11.94,73086.8,-1.97,-12.47,-11.07,0,*53
1488207755.54,21595,11.94,73080.0,-1.97,-12.53,-11.07,0,*57
1488207756.77,21596,11.94,73076.0,-1.97,-12.65,-11.19,0,*5E
1488207758.0,21597,11.94,73076.0,-1.95,-12.47,-11.19,0,*5D
1488207759.2,21598,11.94,73080.5,-1.97,-12.47,-11.11,0,*58
1488207760.43,21599,11.94,73078.0,-1.97,-12.53,-11.11,0,*5C
1488207761.69,21600,11.94,73088.5,-1.95,-12.53,-11.19,0,*55
1488207762.94,21601,11.94,73076.3,-1.95,-12.65,-11.23,0,*58
1488207764.22,21602,11.94,73078.0,-1.95,-12.65,-11.29,0,*51
1488207765.48,21603,11.94,73086.3,-1.95,-12.61,-11.19,0,*57
1488207766.71,21604,11.94,73088.8,-1.95,-12.47,-11.19,0,*54
1488207767.94,21605,11.94,73092.5,-1.95,-12.39,-11.11,0,*54
1488207769.17,21606,11.94,73092.3,-1.95,-12.39,-10.97,0,*58
1488207770.43,21607,11.94,73088.3,-1.95,-12.47,-11.07,0,*58
1488207771.72,21608,11.94,73086.8,-1.95,-12.35,-11.07,0,*52
1488207772.95,21609,11.94,73088.0,-1.95,-12.25,-10.93,0,*5E
1488207774.21,21610,11.94,73086.5,-1.95,-12.53,-11.19,0,*54
1488207775.44,21611,11.94,73084.8,-1.97,-12.53,-11.23,0,*5E
1488207776.67,21612,11.94,73086.5,-1.95,-12.47,-11.23,0,*5A
1488207777.9,21613,11.94,73092.3,-1.95,-12.47,-11.23,0,*5B
1488207779.16,21614,11.94,73094.0,-1.95,-12.53,-11.23,0,*59
1488207780.43,21615,11.94,73096.3,-1.95,-12.35,-10.97,0,*56
1488207781.67,21616,11.94,73096.5,-1.95,-12.21,-10.93,0,*54
1488207782.9,21617,11.94,73076.3,-1.93,-12.29,-11.07,0,*57
1488207784.17,21618,11.94,73076.3,-1.95,-12.35,-10.97,0,*5B
1488207785.37,21619,11.94,73074.0,-1.93,-12.47,-11.23,0,*57
1488207786.6,21620,11.94,73084.5,-1.93,-12.35,-11.15,0,*5D
1488207787.84,21621,11.94,73082.3,-1.93,-12.29,-11.07,0,*52
1488207789.1,21622,11.94,73096.3,-1.95,-12.35,-11.19,0,*55
1488207790.33,21623,11.88,73080.8,-1.95,-12.39,-11.11,0,*50
1488207791.58,21624,11.88,73080.3,-1.95,-12.35,-11.11,0,*5B
1488207792.84,21625,11.94,73084.8,-1.95,-12.35,-11.19,0,*52
1488207794.07,21626,11.94,73082.0,-1.95,-12.47,-11.23,0,*5D
1488207795.33,21627,11.94,73090.8,-1.95,-12.35,-11.19,0,*50
1488207796.59,21628,11.88,73088.0,-1.95,-12.25,-11.07,0,*51
1488207797.82,21629,11.94,73080.0,-1.95,-12.39,-11.19,0,*52
1488207799.06,21630,11.94,73082.5,-1.95,-12.21,-10.97,0,*54
1488207800.28,21631,11.94,73082.5,-1.93,-12.21,-11.01,0,*5D
1488207801.51,21632,11.88,73084.5,-1.93,-12.15,-11.01,0,*59
1488207802.75,21633,11.94,73086.3,-1.93,-12.21,-11.07,0,*59
1488207803.96,21634,11.88,73086.3,-1.93,-12.21,-11.01,0,*58
1488207805.17,21635,11.88,73092.5,-1.93,-12.21,-11.15,0,*5C
1488207806.4,21636,11.94,73086.8,-1.93,-12.15,-11.01,0,*5D
1488207807.66,21637,11.94,73096.3,-1.93,-12.15,-11.07,0,*5A
1488207808.87,21638,11.94,73090.8,-1.93,-12.29,-11.19,0,*55
1488207810.08,21639,11.94,73096.8,-1.93,-12.29,-11.19,0,*54
1488207811.34,21640,11.94,73086.8,-1.93,-12.15,-11.07,0,*5A
1488207812.6,21641,11.88,73080.8,-1.91,-12.11,-10.93,0,*51
1488207813.83,21642,11.94,73086.5,-1.93,-12.11,-11.01,0,*5A
1488207815.06,21643,11.94,73086.8,-1.91,-12.29,-11.19,0,*5B
1488207816.27,21644,11.94,73084.5,-1.93,-12.29,-11.19,0,*5E
1488207817.51,21645,11.88,73086.3,-1.91,-12.29,-11.15,0,*51
1488207818.79,21646,11.94,73090.5,-1.91,-12.15,-11.07,0,*5E
1488207820.03,21647,11.94,73094.5,-1.91,-12.21,-11.01,0,*5E
1488207821.32,21648,11.88,73092.8,-1.91,-12.15,-11.07,0,*50
1488207822.53,21649,11.88,73090.8,-1.93,-12.21,-11.19,0,*5B
1488207823.77,21650,11.88,73094.5,-1.91,-12.21,-11.15,0,*5D
1488207825.0,21651,11.88,73092.3,-1.93,-12.15,-11.15,0,*59
1488207826.28,21652,11.94,73100.0,-1.91,-12.15,-11.07,0,*5B
1488207827.52,21653,11.94,73096.8,-1.91,-12.21,-11.15,0,*5E
1488207828.76,21654,11.94,73098.8,-1.91,-12.21,-11.19,0,*55
1488207829.99,21655,11.88,73098.8,-1.93,-12.15,-11.19,0,*51
1488207831.2,21656,11.94,73100.8,-1.93,-12.21,-11.15,0,*59
1488207832.46,21657,11.88,73098.3,-1.91,-12.11,-11.01,0,*5C
1488207833.69,21658,11.88,73094.3,-1.91,-12.29,-11.23,0,*58
1488207834.96,21659,11.94,73096.5,-1.91,-12.11,-11.01,0,*52
1488207836.21,21660,11.88,73100.5,-1.91,-12.15,-11.15,0,*59
1488207837.42,21661,11.94,73102.3,-1.93,-12.21,-11.23,0,*58
1488207838.65,21662,11.88,73102.3,-1.93,-12.15,-11.15,0,*59
1488207839.89,21663,11.88,73090.3,-1.91,-12.21,-11.23,0,*58
1488207841.15,21664,11.94,73094.3,-1.91,-12.21,-11.33,0,*5E
1488207842.41,21665,11.94,73104.3,-1.91,-12.29,-11.37,0,*53
1488207843.62,21666,11.94,73094.8,-1.93,-12.29,-11.23,0,*57
1488207844.89,21667,11.94,73096.8,-1.91,-12.15,-11.33,0,*5A
1488207846.1,21668,11.94,73092.5,-1.93,-12.21,-11.23,0,*51
1488207847.36,21669,11.88,73094.3,-1.91,-12.29,-11.33,0,*5B
1488207848.6,21670,11.94,73088.8,-1.91,-12.21,-11.23,0,*5A
1488207849.81,21671,11.88,73090.8,-1.93,-12.21,-11.23,0,*59
1488207851.04,21672,11.94,73086.8,-1.93,-12.21,-11.33,0,*5B
1488207852.27,21673,11.88,73088.8,-1.93,-12.29,-11.33,0,*52
1488207853.5,21674,11.94,73094.8,-1.93,-12.29,-11.37,0,*51
1488207854.73,21675,11.94,73100.5,-1.93,-12.29,-11.37,0,*50
1488207855.94,21676,11.94,73096.0,-1.93,-12.29,-11.45,0,*56
1488207857.17,21677,11.94,73092.3,-1.93,-12.21,-11.37,0,*5A
1488207858.4,21678,11.94,73090.5,-1.93,-12.21,-11.33,0,*51
1488207859.63,21679,11.94,73088.3,-1.93,-12.29,-11.33,0,*58
1488207860.86,21680,11.94,73084.0,-1.93,-12.29,-11.33,0,*5E
1488207862.09,21681,11.88,73072.0,-1.93,-12.29,-11.37,0,*5B
1488207863.32,21682,11.88,73072.5,-1.93,-12.29,-11.37,0,*58
1488207864.58,21683,11.94,73076.3,-1.93,-12.35,-11.37,0,*54
1488207865.78,21684,11.88,73082.0,-1.93,-12.29,-11.45,0,*5B
1488207867.02,21685,11.88,73082.8,-1.93,-12.29,-11.37,0,*5F
1488207868.25,21686,11.88,73088.8,-1.93,-12.21,-11.37,0,*54
1488207869.51,21687,11.94,73084.8,-1.95,-12.21,-11.29,0,*5C
1488207870.78,21688,11.94,73088.0,-1.95,-12.21,-11.29,0,*53
1488207872.02,21689,11.94,73086.5,-1.95,-12.21,-11.23,0,*58
1488207873.26,21690,11.88,73082.3,-1.95,-12.21,-11.23,0,*50
1488207874.55,21691,11.88,73078.3,-1.95,-11.93,-11.07,0,*5D
1488207875.81,21692,11.94,73076.8,-1.95,-11.93,-11.11,0,*59
1488207877.04,21693,11.94,73076.0,-1.93,-11.89,-11.01,0,*54
1488207878.33,21694,11.88,73080.8,-1.91,-11.85,-11.07,0,*5B
1488207879.61,21695,11.94,73080.8,-1.95,-11.89,-11.07,0,*52
1488207880.87,21696,11.88,73080.8,-1.93,-11.89,-11.07,0,*57
1488207882.13,21697,11.88,73084.5,-1.93,-11.97,-11.07,0,*59
1488207883.39,21698,11.94,73090.5,-1.93,-11.89,-11.07,0,*59
1488207884.64,21699,11.88,73084.8,-1.91,-11.85,-10.89,0,*51
1488207885.9,21700,11.94,73088.3,-1.93,-11.85,-10.79,0,*5D
1488207887.19,21701,11.88,73088.0,-1.91,-11.59,-10.75,0,*53
1488207888.45,21702,11.88,73088.0,-1.93,-11.63,-10.79,0,*57
1488207889.74,21703,11.94,73090.0,-1.91,-11.63,-10.75,0,*58
1488207891.02,21704,11.88,73090.8,-1.91,-11.77,-10.79,0,*56
1488207892.28,21705,11.88,73088.5,-1.91,-11.77,-10.89,0,*58
1488207893.5,21706,11.88,73090.5,-1.89,-11.73,-10.85,0,*5A
1488207894.73,21707,11.88,73084.8,-1.89,-11.67,-10.85,0,*5E
1488207895.98,21708,11.88,73084.5,-1.89,-11.67,-10.71,0,*5A
1488207897.24,21709,11.88,73086.3,-1.89,-11.67,-10.75,0,*5F
1488207898.48,21710,11.88,73084.5,-1.89,-11.67,-10.89,0,*54
1488207899.73,21711,11.88,73080.8,-1.87,-11.63,-10.85,0,*53
1488207900.99,21712,11.94,73084.0,-1.89,-11.67,-10.79,0,*59
1488207902.27,21713,11.94,73086.8,-1.87,-11.63,-10.79,0,*52
1488207903.52,21714,11.94,73088.5,-1.87,-11.55,-10.85,0,*53
1488207904.75,21715,11.94,73086.3,-1.89,-11.73,-10.89,0,*54
1488207906.0,21716,11.94,73086.8,-1.87,-11.77,-10.85,0,*51
1488207907.25,21717,11.88,73088.3,-1.87,-11.77,-10.97,0,*53
1488207908.48,21718,11.88,73088.3,-1.87,-12.03,-11.11,0,*53
1488207909.74,21719,11.88,73088.0,-1.87,-11.81,-10.97,0,*54
1488207910.99,21720,11.94,73090.8,-1.87,-11.81,-10.97,0,*5E
1488207912.24,21721,11.88,73088.5,-1.87,-11.77,-10.85,0,*55
1488207913.49,21722,11.88,73088.0,-1.87,-11.89,-10.93,0,*50
1488207914.72,21723,11.94,73092.0,-1.85,-11.81,-11.11,0,*50
1488207915.95,21724,11.88,73090.8,-1.85,-11.81,-10.93,0,*5C
1488207917.2,21725,11.94,73092.5,-1.85,-11.77,-11.07,0,*58
1488207918.43,21726,11.88,73088.0,-1.85,-11.77,-10.93,0,*57
1488207919.67,21727,11.88,73090.5,-1.85,-11.67,-10.93,0,*57
1488207920.89,21728,11.88,73092.3,-1.85,-11.67,-10.85,0,*5F
1488207922.12,21729,11.88,73088.8,-1.85,-11.77,-10.93,0,*58
1488207923.41,21730,11.94,73084.0,-1.83,-11.63,-10.79,0,*57
1488207924.64,21731,11.88,73098.5,-1.85,-11.81,-10.97,0,*5C
1488207925.87,21732,11.88,73088.0,-1.85,-11.67,-10.85,0,*54
1488207927.1,21733,11.88,73094.5,-1.85,-11.77,-10.93,0,*53
1488207928.36,21734,11.88,73102.8,-1.83,-11.77,-10.93,0,*52
1488207929.62,21735,11.88,73088.8,-1.83,-11.89,-11.11,0,*59
1488207930.82,21736,11.94,73084.3,-1.85,-12.03,-11.23,0,*5C
1488207932.08,21737,11.94,73082.3,-1.83,-11.89,-11.11,0,*5B
1488207933.34,21738,11.88,73080.5,-1.83,-11.77,-10.89,0,*55
1488207934.57,21739,11.88,73084.0,-1.85,-11.81,-10.93,0,*50
1488207935.8,21740,11.88,73084.5,-1.85,-11.77,-10.97,0,*53
1488207937.03,21741,11.88,73082.5,-1.85,-11.73,-10.97,0,*56
1488207938.27,21742,11.88,73080.3,-1.85,-11.93,-11.15,0,*50
1488207939.5,21743,11.88,73086.0,-1.85,-11.93,-11.15,0,*51
1488207940.76,21744,11.88,73090.5,-1.83,-11.89,-11.11,0,*5F
1488207942.02,21745,11.94,73092.0,-1.83,-11.63,-10.89,0,*5A
1488207943.31,21746,11.88,73088.3,-1.83,-11.51,-10.75,0,*5B
1488207944.6,21747,11.88,73090.5,-1.83,-11.51,-10.75,0,*5A
1488207945.89,21748,11.88,73086.5,-1.83,-11.37,-10.67,0,*56
1488207947.16,21749,11.88,73086.3,-1.83,-11.45,-10.67,0,*52
1488207948.45,21750,11.88,73088.3,-1.83,-11.59,-10.79,0,*58
1488207949.74,21751,11.94,73092.8,-1.83,-11.59,-10.79,0,*59
1488207951.03,21752,11.88,73094.8,-1.83,-11.59,-10.79,0,*5A
1488207952.31,21753,11.88,73096.8,-1.83,-11.37,-10.63,0,*58
1488207953.6,21754,11.88,73100.8,-1.83,-11.51,-10.67,0,*5B
1488207954.89,21755,11.94,73100.5,-1.83,-11.59,-10.79,0,*5D
1488207956.15,21756,11.88,73094.0,-1.81,-11.51,-10.75,0,*58
1488207957.41,21757,11.88,73094.0,-1.81,-11.59,-10.79,0,*5D
1488207958.64,21758,11.88,73092.0,-1.81,-11.73,-10.93,0,*5E
1488207959.87,21759,11.88,73094.5,-1.81,-11.85,-11.01,0,*5C
1488207961.13,21760,11.88,73096.8,-1.81,-11.67,-10.79,0,*54
1488207962.37,21761,11.88,73098.8,-1.77,-11.41,-10.57,0,*54
1488207963.63,21762,11.88,73096.0,-1.81,-11.51,-10.67,0,*5C
1488207964.93,21763,11.88,73094.0,-1.77,-11.55,-10.67,0,*50
1488207966.19,21764,11.88,73098.0,-1.81,-11.59,-10.67,0,*52
1488207967.43,21765,11.88,73106.3,-1.77,-11.41,-10.57,0,*50
1488207968.69,21766,11.88,73102.3,-1.81,-11.59,-10.75,0,*53
1488207969.98,21767,11.88,73102.3,-1.77,-11.51,-10.71,0,*57
1488207971.23,21768,11.94,73104.0,-1.81,-11.73,-10.79,0,*59
1488207972.46,21769,11.88,73096.8,-1.81,-11.73,-10.89,0,*57
1488207973.75,21770,11.88,73102.3,-1.77,-11.55,-10.71,0,*55
1488207975.05,21771,11.88,73098.0,-1.77,-11.55,-10.67,0,*53
1488207976.28,21772,11.88,73100.8,-1.81,-11.63,-10.89,0,*5C
1488207977.58,21773,11.88,73096.8,-1.77,-11.63,-10.67,0,*54
1488207978.87,21774,11.88,73098.8,-1.77,-11.63,-10.79,0,*5C
1488207980.13,21775,11.94,73102.8,-1.81,-11.63,-10.71,0,*5C
1488207981.39,21776,11.88,73096.0,-1.77,-11.67,-10.85,0,*59
1488207982.65,21777,11.88,73094.8,-1.77,-11.77,-10.93,0,*5E
1488207983.94,21778,11.94,73100.3,-1.77,-11.55,-10.79,0,*55
1488207985.24,21779,11.88,73098.8,-1.77,-11.63,-10.79,0,*51
1488207986.53,21780,11.88,73098.0,-1.77,-11.51,-10.67,0,*59
1488207987.77,21781,11.88,73102.8,-1.77,-11.41,-10.53,0,*5E
1488207989.01,21782,11.88,73100.8,-1.75,-11.37,-10.53,0,*5E
1488207990.22,21783,11.88,73102.5,-1.75,-11.41,-10.53,0,*5E
1488207991.48,21784,11.88,73102.5,-1.73,-11.37,-10.49,0,*55
1488207992.71,21785,11.94,73110.3,-1.75,-11.51,-10.53,0,*59
1488207993.95,21786,11.88,73100.8,-1.73,-11.45,-10.49,0,*52
1488207995.24,21787,11.88,73096.8,-1.73,-11.51,-10.63,0,*5E
1488207996.52,21788,11.88,73092.3,-1.73,-11.73,-10.79,0,*5A
1488207997.76,21789,11.88,73090.3,-1.75,-11.93,-11.11,0,*5C
1488207999.0,21790,11.88,73084.8,-1.75,-11.93,-11.11,0,*54
1488208000.26,21791,11.88,73080.5,-1.73,-11.89,-10.97,0,*57
1488208001.55,21792,11.88,73080.0,-1.73,-11.85,-10.79,0,*58
1488208002.78,21793,11.88,73086.5,-1.75,-11.77,-10.85,0,*51
1488208004.06,21794,11.88,73082.5,-1.73,-11.77,-10.79,0,*53
1488208005.32,21795,11.88,73088.3,-1.73,-11.85,-10.89,0,*50
1488208006.58,21796,11.88,73092.5,-1.75,-11.81,-10.71,0,*56
1488208007.86,21797,11.88,73088.8,-1.73,-11.85,-10.79,0,*5D
1488208009.11,21798,11.88,73092.0,-1.75,-11.93,-10.93,0,*57
1488208010.34,21799,11.88,73092.5,-1.75,-11.85,-10.93,0,*51
1488208011.6,21800,11.88,73092.3,-1.73,-11.85,-10.89,0,*53
1488208012.88,21801,11.88,73096.0,-1.73,-11.77,-10.75,0,*5C
1488208014.18,21802,11.88,73094.8,-1.73,-11.93,-11.07,0,*51
1488208015.44,21803,11.88,73090.5,-1.73,-11.93,-10.97,0,*58
1488208016.68,21804,11.88,73092.3,-1.75,-11.97,-11.11,0,*52
1488208017.9,21805,11.88,73092.5,-1.75,-12.21,-11.23,0,*5C
1488208019.14,21806,11.88,73090.8,-1.75,-12.21,-11.29,0,*55
1488208020.4,21807,11.88,73082.0,-1.75,-12.35,-11.29,0,*51
1488208021.68,21808,11.88,73086.3,-1.73,-12.35,-11.33,0,*53
1488208022.94,21809,11.88,73090.8,-1.75,-12.35,-11.29,0,*5F
1488208024.18,21810,11.88,73088.5,-1.75,-12.11,-11.23,0,*5B
1488208025.4,21811,11.88,73084.8,-1.75,-12.21,-11.23,0,*59
1488208026.63,21812,11.88,73086.0,-1.75,-12.07,-11.11,0,*5F
1488208027.87,21813,11.88,73092.8,-1.75,-12.07,-11.01,0,*5F
1488208029.11,21814,11.88,73092.8,-1.75,-12.11,-11.11,0,*5E
1488208030.35,21815,11.88,73088.5,-1.75,-12.07,-11.01,0,*59
1488208031.62,21816,11.88,73092.3,-1.77,-11.93,-10.93,0,*5C
1488208032.91,21817,11.88,73092.3,-1.77,-11.81,-10.67,0,*55
1488208034.17,21818,11.88,73090.3,-1.75,-11.67,-10.71,0,*57
1488208035.43,21819,11.88,73090.5,-1.75,-11.89,-10.71,0,*56
1488208036.72,21820,11.88,73094.5,-1.73,-11.85,-10.79,0,*5E
1488208037.95,21821,11.88,73094.0,-1.75,-11.89,-10.85,0,*56
1488208039.19,21822,11.88,73090.0,-1.75,-11.93,-10.93,0,*59
1488208040.46,21823,11.88,73096.0,-1.75,-11.93,-10.79,0,*5C
1488208041.69,21824,11.88,73092.3,-1.75,-11.89,-10.85,0,*53
1488208042.95,21825,11.88,73088.8,-1.73,-11.89,-10.93,0,*53
1488208044.21,21826,11.88,73098.8,-1.73,-11.89,-10.93,0,*50
1488208045.44,21827,11.88,73094.0,-1.75,-11.97,-10.85,0,*5F
1488208046.7,21828,11.88,73092.0,-1.73,-12.07,-10.93,0,*5B
1488208047.96,21829,11.88,73086.8,-1.73,-12.15,-11.11,0,*52
1488208049.2,21830,11.88,73086.5,-1.73,-12.21,-11.11,0,*5D
1488208050.43,21831,11.88,73084.8,-1.75,-12.15,-11.15,0,*59
1488208051.66,21832,11.88,73084.3,-1.73,-12.03,-10.93,0,*54
1488208052.88,21833,11.88,73088.0,-1.75,-12.21,-11.11,0,*58
1488208054.12,21834,11.88,73086.5,-1.75,-12.07,-11.11,0,*5B
1488208055.33,21835,11.88,73086.5,-1.75,-12.25,-11.11,0,*5A
1488208056.56,21836,11.88,73090.0,-1.73,-12.03,-10.97,0,*54
1488208057.83,21837,11.88,73088.5,-1.75,-11.97,-10.79,0,*5D
1488208059.12,21838,11.88,73090.3,-1.73,-11.89,-10.67,0,*54
1488208060.4,21839,11.88,73094.8,-1.73,-11.85,-10.79,0,*56
1488208061.69,21840,11.88,73092.0,-1.73,-11.93,-10.75,0,*53
1488208062.98,21841,11.88,73094.3,-1.73,-11.89,-10.67,0,*5A
1488208064.25,21842,11.88,73088.5,-1.75,-11.93,-10.71,0,*53
1488208065.54,21843,11.88,73088.5,-1.73,-11.85,-10.67,0,*54
1488208066.79,21844,11.88,73090.3,-1.73,-11.77,-10.53,0,*59
1488208068.09,21845,11.88,73092.0,-1.73,-11.63,-10.41,0,*5E
1488208069.38,21846,11.88,73092.0,-1.73,-11.63,-10.41,0,*5D
1488208070.63,21847,11.88,73096.0,-1.73,-11.77,-10.49,0,*51
1488208071.9,21848,11.88,73094.5,-1.71,-11.85,-10.67,0,*5D
1488208073.16,21849,11.88,73084.8,-1.69,-11.97,-10.93,0,*5D
1488208074.37,21850,11.88,73080.8,-1.71,-12.43,-11.19,0,*55
1488208075.64,21851,11.88,73070.3,-1.69,-12.29,-11.07,0,*5E
1488208076.88,21852,11.88,73074.3,-1.71,-12.15,-10.93,0,*57
1488208078.09,21853,11.88,73082.8,-1.71,-12.03,-10.89,0,*5A
1488208079.33,21854,11.88,73092.5,-1.71,-12.03,-10.67,0,*5D
1488208080.62,21855,11.88,73086.5,-1.73,-11.93,-10.67,0,*54
1488208081.86,21856,11.88,73084.8,-1.73,-12.21,-10.93,0,*56
1488208083.15,21857,11.88,73086.5,-1.73,-12.07,-10.79,0,*57
1488208084.44,21858,11.88,73084.8,-1.73,-11.93,-10.67,0,*59
1488208085.73,21859,11.88,73086.5,-1.73,-11.89,-10.67,0,*53
1488208087.0,21860,11.88,73086.8,-1.71,-11.89,-10.67,0,*5B
1488208088.24,21861,11.88,73088.8,-1.71,-11.89,-10.49,0,*56
1488208089.48,21862,11.88,73088.5,-1.71,-11.89,-10.53,0,*5E
1488208090.77,21863,11.88,73094.5,-1.69,-11.89,-10.63,0,*55
1488208092.05,21864,11.88,73090.0,-1.69,-11.97,-10.63,0,*5D
1488208093.32,21865,11.88,73090.0,-1.71,-12.07,-10.75,0,*58
1488208094.56,21866,11.88,73080.8,-1.71,-12.03,-10.75,0,*5F
1488208095.79,21867,11.88,73080.5,-1.71,-12.15,-10.89,0,*5A
1488208097.03,21868,11.88,73078.8,-1.71,-12.03,-10.75,0,*51
1488208098.27,21869,11.88,73078.8,-1.71,-12.03,-10.63,0,*57
1488208099.55,21870,11.88,73096.3,-1.71,-11.93,-10.67,0,*51